Weather History for KBGD - January, 2014

Change the Weather History Date:

Saturday, January 25, 2014

  Actual Average Record
Temperature  
Mean Temperature 47 °F 40 °F  
Max Temperature 64 °F 53 °F 78 °F (1952)
Min Temperature 30 °F 27 °F 6 °F (1957)
Degree Days  
Heating Degree Days 18 25  
Month to date heating degree days 619 666  
Since 1 July heating degree days 2176 2203  
Cooling Degree Days 0 0  
Month to date cooling degree days 0 0  
Year to date cooling degree days 0 0  
Moisture  
Dew Point 18 °F    
Average Humidity 34    
Maximum Humidity 47    
Minimum Humidity 21    
Precipitation  
Precipitation 0.00 in 0.03 in 0.29 in (1962)
Month to date precipitation 0.07 0.44  
Year to date precipitation 0.07 0.44  
Snow  
Snow 0.00 in - 2.70 in (1978)
Month to date snowfall 1.3  
Since 1 July snowfall 8.5  
Snow Depth 0.00 in    
Sea Level Pressure  
Sea Level Pressure 30.09 in    
Wind  
Wind Speed 7 mph (SW)    
Max Wind Speed 16 mph    
Max Gust Speed 22 mph    
Visibility 10 miles    
Events      
T = Trace of Precipitation, MM = Missing Value Source: NWS Daily Summary

Daily Weather History Graph

Daily Weather History Graph

Search for Another Location

Airport or City:

Trip Planner

Search our weather history database for the weather conditions in past years. The results will help you decide how hot, cold, wet, or windy it might be!

Date:

Astronomy

Jan. 25, 2014 Rise Set
Actual Time 7:50 AM CST 6:05 PM CST
Civil Twilight 7:23 AM CST 6:33 PM CST
Nautical Twilight 6:52 AM CST 7:04 PM CST
Astronomical Twilight 6:21 AM CST 7:34 PM CST
Moon 2:25 AM CST (1/25) 1:07 PM CST (1/25)
Length of Visible Light 11h 10m
Length of Day
10h 15m
Waning Crescent, 34% of the Moon is Illuminated
Jan 25
Waning Crescent
Jan 30
New
Feb 6
First Quarter
Feb 14
Full
Feb 22
Last Quarter

Hourly Weather History & Observations

Time (CST) Temp. Windchill Dew Point Humidity Pressure Visibility Wind Dir Wind Speed Gust Speed Precip Events Conditions
12:51 AM 41.0 °F 34.3 °F 9.0 °F 27% 30.18 in 10.0 mi WSW 11.5 mph - N/A   Clear
1:51 AM 37.9 °F 30.5 °F 10.0 °F 32% 30.16 in 10.0 mi West 11.5 mph - N/A   Clear
2:51 AM 37.9 °F 31.5 °F 10.9 °F 33% 30.14 in 10.0 mi WSW 9.2 mph - N/A   Clear
3:51 AM 33.1 °F 26.1 °F 12.0 °F 42% 30.15 in 10.0 mi West 8.1 mph - N/A   Clear
4:51 AM 36.0 °F 29.6 °F 10.9 °F 36% 30.14 in 10.0 mi WSW 8.1 mph - N/A   Clear
5:51 AM 30.9 °F 22.8 °F 12.0 °F 46% 30.17 in 10.0 mi WSW 9.2 mph - N/A   Clear
6:51 AM 32.0 °F 26.4 °F 12.9 °F 45% 30.19 in 10.0 mi SW 5.8 mph - N/A   Clear
7:51 AM 34.0 °F 28.0 °F 15.1 °F 46% 30.20 in 10.0 mi WSW 6.9 mph - N/A   Clear
8:51 AM 36.0 °F 32.1 °F 16.0 °F 44% 30.20 in 10.0 mi SW 4.6 mph - N/A   Clear
9:51 AM 41.0 °F 38.0 °F 18.0 °F 40% 30.21 in 10.0 mi WNW 4.6 mph - N/A   Clear
10:51 AM 48.0 °F - 19.0 °F 32% 30.20 in 10.0 mi WNW 5.8 mph - N/A   Clear
11:51 AM 54.0 °F - 19.9 °F 26% 30.18 in 10.0 mi Variable 3.5 mph - N/A   Clear
12:51 PM 60.1 °F - 23.0 °F 24% 30.13 in 10.0 mi Calm Calm - N/A   Clear
1:51 PM 62.1 °F - 23.0 °F 22% 30.09 in 10.0 mi ENE 6.9 mph - N/A   Clear
2:51 PM 63.0 °F - 23.0 °F 22% 30.05 in 10.0 mi Calm Calm - N/A   Clear
3:51 PM 63.0 °F - 24.1 °F 23% 30.04 in 10.0 mi Variable 4.6 mph - N/A   Clear
4:51 PM 60.1 °F - 24.1 °F 25% 30.03 in 10.0 mi SSE 4.6 mph - N/A   Clear
5:51 PM 57.0 °F - 24.1 °F 28% 30.02 in 10.0 mi SSE 4.6 mph - N/A   Clear
6:51 PM 55.0 °F - 23.0 °F 29% 30.01 in 10.0 mi SSE 6.9 mph - N/A   Clear
7:51 PM 52.0 °F - 23.0 °F 32% 29.99 in 10.0 mi SSE 8.1 mph - N/A   Clear
8:51 PM 51.1 °F - 23.0 °F 33% 29.96 in 10.0 mi South 13.8 mph - N/A   Clear
9:51 PM 50.0 °F - 23.0 °F 35% 29.94 in 10.0 mi South 12.7 mph - N/A   Clear
10:51 PM 46.9 °F - 23.0 °F 39% 29.91 in 10.0 mi South 10.4 mph - N/A   Clear
11:51 PM 46.9 °F - 21.9 °F 37% 29.87 in 10.0 mi South 9.2 mph - N/A   Clear